TimeEDT,TemperatureF,Dew PointF,Humidity,Sea Level PressureIn,VisibilityMPH,Wind Direction,Wind SpeedMPH,Gust SpeedMPH,PrecipitationIn,Events,Conditions,WindDirDegrees,DateUTC
12:56 AM,72.0,68.0,87,30.09,10.0,NE,12.7,-,0.00,,Overcast,50,2011-10-10 04:56:00
1:56 AM,71.1,69.1,93,30.07,6.0,NE,12.7,-,0.01,Rain,Light Rain,40,2011-10-10 05:56:00
2:56 AM,69.1,69.1,100,30.04,9.0,NNE,12.7,-,0.03,Rain,Light Rain,30,2011-10-10 06:56:00
3:56 AM,69.1,68.0,96,30.03,9.0,NNE,12.7,-,0.00,,Overcast,30,2011-10-10 07:56:00
4:56 AM,69.1,68.0,96,30.02,7.0,NE,15.0,21.9,0.01,Rain,Light Rain,40,2011-10-10 08:56:00
5:16 AM,69.8,68.0,94,30.02,10.0,NE,12.7,-,0.00,,Overcast,40,2011-10-10 09:16:00
5:56 AM,69.1,68.0,96,30.01,10.0,NE,11.5,-,0.00,,Overcast,40,2011-10-10 09:56:00
6:56 AM,69.1,68.0,96,30.03,9.0,NE,12.7,-,0.00,,Overcast,40,2011-10-10 10:56:00
7:56 AM,69.1,68.0,96,30.01,10.0,NE,11.5,-,N/A,,Overcast,40,2011-10-10 11:56:00
8:56 AM,69.1,68.0,96,30.02,8.0,NNE,13.8,-,0.02,,Overcast,30,2011-10-10 12:56:00
9:56 AM,70.0,69.1,97,30.03,10.0,NE,13.8,-,0.00,,Overcast,50,2011-10-10 13:56:00
10:56 AM,73.0,66.0,79,30.04,10.0,ENE,15.0,28.8,N/A,,Overcast,70,2011-10-10 14:56:00
11:56 AM,73.0,64.9,76,30.03,10.0,East,17.3,31.1,0.00,Rain,Light Rain,80,2011-10-10 15:56:00
12:56 PM,73.0,66.0,79,30.01,10.0,ENE,18.4,26.5,0.00,Rain,Light Rain,70,2011-10-10 16:56:00
1:56 PM,71.1,68.0,90,29.99,8.0,ENE,18.4,26.5,0.00,Rain,Light Rain,70,2011-10-10 17:56:00
2:56 PM,69.1,66.9,93,29.96,8.0,ENE,15.0,24.2,0.02,Rain,Light Rain,60,2011-10-10 18:56:00
3:56 PM,68.0,66.0,93,29.94,7.0,ENE,18.4,28.8,0.03,Rain,Rain,70,2011-10-10 19:56:00
4:56 PM,68.0,66.9,96,29.94,3.0,East,17.3,31.1,0.12,Rain,Heavy Rain,80,2011-10-10 20:56:00
5:56 PM,69.1,68.0,96,29.94,8.0,ENE,11.5,-,0.13,Rain,Light Rain,60,2011-10-10 21:56:00
6:46 PM,68.0,66.2,94,29.94,10.0,NE,13.8,-,0.00,,Overcast,50,2011-10-10 22:46:00
6:56 PM,68.0,66.9,96,29.94,10.0,ENE,16.1,24.2,0.00,,Overcast,60,2011-10-10 22:56:00
7:19 PM,68.0,66.2,94,29.93,8.0,ENE,15.0,24.2,0.01,Rain,Light Rain,60,2011-10-10 23:19:00
7:54 PM,68.0,66.2,94,29.92,4.0,ENE,13.8,23.0,N/A,Rain,Light Rain,70,2011-10-10 23:54:00
7:56 PM,68.0,66.9,96,29.92,4.0,ENE,16.1,23.0,0.01,Rain,Light Rain,70,2011-10-10 23:56:00
8:41 PM,69.8,68.0,94,29.92,10.0,ENE,17.3,-,0.00,Rain,Light Rain,60,2011-10-11 00:41:00
8:56 PM,69.1,68.0,96,29.92,10.0,ENE,13.8,-,0.00,Rain,Light Rain,70,2011-10-11 00:56:00
9:40 PM,69.8,68.0,94,29.93,10.0,ENE,12.7,20.7,0.00,,Mostly Cloudy,60,2011-10-11 01:40:00
9:56 PM,71.1,66.9,87,29.93,10.0,ENE,11.5,18.4,0.00,,Overcast,70,2011-10-11 01:56:00
10:56 PM,70.0,66.0,87,29.92,10.0,ENE,10.4,-,N/A,,Overcast,70,2011-10-11 02:56:00
11:20 PM,69.8,69.8,100,29.93,3.0,East,18.4,23.0,0.03,Rain,Rain,80,2011-10-11 03:20:00
11:56 PM,69.1,66.9,93,29.93,10.0,East,18.4,26.5,0.04,,Overcast,90,2011-10-11 03:56:00